SB KEPS @ AMSAT $ORB08066.O Orbital Elements 08066.OSCAR
HR AMSAT ORBITAL ELEMENTS FOR OSCAR SATELLITES FROM WA5QGD FORT WORTH,TX March 6, 2008 Send Subscribe/unsubscribe to KEPS at http://www.amsat.org/mailman/listinfo/keps BID: ORB08066.O TO ALL RADIO AMATEURS BT
Satellite: AO-07 Catalog number: 07530 Epoch time: 08066.10387737 Element set: 119 Inclination: 101.4802 deg RA of node: 101.0044 deg Eccentricity: 0.0012105 Arg of perigee: 103.3523 deg Mean anomaly: 256.8901 deg Mean motion: 12.53573493 rev/day Decay rate: -2.7e-07 rev/day^2 Epoch rev: 52406 Checksum: 252
Satellite: AO-10 Catalog number: 14129 Epoch time: 08063.86448780 Element set: 0478 Inclination: 025.9236 deg RA of node: 227.3594 deg Eccentricity: 0.6022951 Arg of perigee: 103.8050 deg Mean anomaly: 326.4123 deg Mean motion: 02.05872086 rev/day Decay rate: -3.15e-06 rev/day^2 Epoch rev: 18593 Checksum: 305
Satellite: UO-11 Catalog number: 14781 Epoch time: 08066.26029560 Element set: 612 Inclination: 098.1669 deg RA of node: 098.6946 deg Eccentricity: 0.0009882 Arg of perigee: 049.4997 deg Mean anomaly: 310.7115 deg Mean motion: 14.79623064 rev/day Decay rate: 3.06e-06 rev/day^2 Epoch rev: 28863 Checksum: 338
Satellite: RS-15 Catalog number: 23439 Epoch time: 08065.86524720 Element set: 100 Inclination: 064.8197 deg RA of node: 302.1327 deg Eccentricity: 0.0150106 Arg of perigee: 142.3771 deg Mean anomaly: 218.7766 deg Mean motion: 11.27551551 rev/day Decay rate: -3.9e-07 rev/day^2 Epoch rev: 54331 Checksum: 282
Satellite: FO-29 Catalog number: 24278 Epoch time: 08066.55039286 Element set: 718 Inclination: 098.5854 deg RA of node: 356.2711 deg Eccentricity: 0.0351358 Arg of perigee: 121.1813 deg Mean anomaly: 242.4273 deg Mean motion: 13.52935252 rev/day Decay rate: -7.8e-07 rev/day^2 Epoch rev: 57051 Checksum: 320
Satellite: SO-33 Catalog number: 25509 Epoch time: 08066.71820416 Element set: 147 Inclination: 031.4318 deg RA of node: 175.7400 deg Eccentricity: 0.0355457 Arg of perigee: 211.3495 deg Mean anomaly: 146.5479 deg Mean motion: 14.28201332 rev/day Decay rate: 5.0e-07 rev/day^2 Epoch rev: 48895 Checksum: 298
Satellite: AO-40 Catalog number: 26609 Epoch time: 08066.09989457 Element set: 19 Inclination: 007.4716 deg RA of node: 094.2411 deg Eccentricity: 0.7923203 Arg of perigee: 058.5157 deg Mean anomaly: 355.3991 deg Mean motion: 01.25584609 rev/day Decay rate: -3.47e-06 rev/day^2 Epoch rev: 3374 Checksum: 328
Satellite: VO-52 Catalog number: 28650 Epoch time: 08066.40387720 Element set: 873 Inclination: 097.8000 deg RA of node: 135.7914 deg Eccentricity: 0.0028283 Arg of perigee: 115.1874 deg Mean anomaly: 245.2287 deg Mean motion: 14.81427320 rev/day Decay rate: -1.83e-06 rev/day^2 Epoch rev: 15338 Checksum: 306
Satellite: PO-63 Catalog number: 29712 Epoch time: 08066.73743296 Element set: 245 Inclination: 097.8872 deg RA of node: 126.8050 deg Eccentricity: 0.0014193 Arg of perigee: 359.1920 deg Mean anomaly: 000.9268 deg Mean motion: 14.80048368 rev/day Decay rate: 6.87e-06 rev/day^2 Epoch rev: 6231 Checksum: 322
/EX SB KEPS @ AMSAT $ORB08066.D Orbital Elements 08066.MICROS
HR AMSAT ORBITAL ELEMENTS FOR THE MICROSATS FROM WA5QGD FORT WORTH,TX March 6, 2008 Send Subscribe/unsubscribe to KEPS at http://www.amsat.org/mailman/listinfo/keps BID: ORB08066.D TO ALL RADIO AMATEURS BT
Satellite: AO-16 Catalog number: 20439 Epoch time: 08065.99350876 Element set: 267 Inclination: 098.2210 deg RA of node: 051.3777 deg Eccentricity: 0.0011626 Arg of perigee: 120.3242 deg Mean anomaly: 239.9100 deg Mean motion: 14.31786050 rev/day Decay rate: 1.7e-07 rev/day^2 Epoch rev: 94615 Checksum: 291
Satellite: LO-19 Catalog number: 20442 Epoch time: 08066.40731705 Element set: 192 Inclination: 098.1946 deg RA of node: 060.6007 deg Eccentricity: 0.0012773 Arg of perigee: 118.6259 deg Mean anomaly: 241.6221 deg Mean motion: 14.32024940 rev/day Decay rate: -3.2e-07 rev/day^2 Epoch rev: 94636 Checksum: 281
Satellite: AO-27 Catalog number: 22825 Epoch time: 08066.42958868 Element set: 914 Inclination: 098.3711 deg RA of node: 030.3699 deg Eccentricity: 0.0007858 Arg of perigee: 199.5987 deg Mean anomaly: 160.4912 deg Mean motion: 14.29232191 rev/day Decay rate: 3.2e-07 rev/day^2 Epoch rev: 75309 Checksum: 344
Satellite: IO-26 Catalog number: 22826 Epoch time: 08066.43147219 Element set: 617 Inclination: 098.3645 deg RA of node: 031.3296 deg Eccentricity: 0.0008477 Arg of perigee: 196.2730 deg Mean anomaly: 163.8189 deg Mean motion: 14.29480051 rev/day Decay rate: 1.4e-07 rev/day^2 Epoch rev: 75318 Checksum: 316
Satellite: PO-28 Catalog number: 22829 Epoch time: 08066.39838721 Element set: 890 Inclination: 098.3521 deg RA of node: 032.4191 deg Eccentricity: 0.0009895 Arg of perigee: 168.3554 deg Mean anomaly: 191.7859 deg Mean motion: 14.30182211 rev/day Decay rate: 2.0e-08 rev/day^2 Epoch rev: 75343 Checksum: 321
Satellite: GO-32 Catalog number: 25397 Epoch time: 08066.74331405 Element set: 543 Inclination: 098.3783 deg RA of node: 106.9043 deg Eccentricity: 0.0001480 Arg of perigee: 142.3846 deg Mean anomaly: 217.7450 deg Mean motion: 14.23138822 rev/day Decay rate: -1.10e-06 rev/day^2 Epoch rev: 50164 Checksum: 281
Satellite: MO-46 Catalog number: 26548 Epoch time: 08066.41450784 Element set: 41 Inclination: 064.5569 deg RA of node: 088.2796 deg Eccentricity: 0.0018065 Arg of perigee: 338.0321 deg Mean anomaly: 021.9979 deg Mean motion: 14.83232522 rev/day Decay rate: -1.7e-07 rev/day^2 Epoch rev: 40257 Checksum: 315
Satellite: NO-44 Catalog number: 26931 Epoch time: 08066.50799710 Element set: 822 Inclination: 067.0518 deg RA of node: 189.1674 deg Eccentricity: 0.0004994 Arg of perigee: 273.2021 deg Mean anomaly: 086.8505 deg Mean motion: 14.29513128 rev/day Decay rate: -1.58e-06 rev/day^2 Epoch rev: 33573 Checksum: 319
Satellite: SO-50 Catalog number: 27607 Epoch time: 08066.30611703 Element set: 546 Inclination: 064.5605 deg RA of node: 006.0788 deg Eccentricity: 0.0081320 Arg of perigee: 299.7934 deg Mean anomaly: 059.5096 deg Mean motion: 14.71332970 rev/day Decay rate: 7.0e-08 rev/day^2 Epoch rev: 27983 Checksum: 314
Satellite: CO-55 Catalog number: 27844 Epoch time: 08066.67393131 Element set: 251 Inclination: 098.7192 deg RA of node: 076.3545 deg Eccentricity: 0.0010711 Arg of perigee: 054.0648 deg Mean anomaly: 306.1516 deg Mean motion: 14.20564006 rev/day Decay rate: 5.8e-07 rev/day^2 Epoch rev: 24288 Checksum: 297
Satellite: CO-57 Catalog number: 27848 Epoch time: 08066.02430989 Element set: 204 Inclination: 098.7198 deg RA of node: 074.8310 deg Eccentricity: 0.0010562 Arg of perigee: 059.9681 deg Mean anomaly: 300.2537 deg Mean motion: 14.20375496 rev/day Decay rate: 4.3e-07 rev/day^2 Epoch rev: 24276 Checksum: 319
Satellite: AO-51 Catalog number: 28375 Epoch time: 08066.67092430 Element set: 46 Inclination: 098.0827 deg RA of node: 096.9568 deg Eccentricity: 0.0084764 Arg of perigee: 103.2688 deg Mean anomaly: 257.7976 deg Mean motion: 14.40598740 rev/day Decay rate: 8.0e-08 rev/day^2 Epoch rev: 19364 Checksum: 354
Satellite: CO-56 Catalog number: 28941 Epoch time: 08066.77323450 Element set: 879 Inclination: 098.1047 deg RA of node: 163.9740 deg Eccentricity: 0.0185417 Arg of perigee: 052.3109 deg Mean anomaly: 309.4774 deg Mean motion: 15.51448504 rev/day Decay rate: 2.5807e-04 rev/day^2 Epoch rev: 11413 Checksum: 326
Satellite: CP4 Catalog number: 31122 Epoch time: 08065.74102613 Element set: 278 Inclination: 098.0523 deg RA of node: 135.1262 deg Eccentricity: 0.0084513 Arg of perigee: 290.3553 deg Mean anomaly: 068.8532 deg Mean motion: 14.55094070 rev/day Decay rate: 5.49e-06 rev/day^2 Epoch rev: 4703 Checksum: 276
Satellite: CP3 Catalog number: 31128 Epoch time: 08066.65279631 Element set: 274 Inclination: 098.0480 deg RA of node: 134.3767 deg Eccentricity: 0.0101996 Arg of perigee: 292.1590 deg Mean anomaly: 066.8833 deg Mean motion: 14.51919537 rev/day Decay rate: -4.9e-07 rev/day^2 Epoch rev: 4705 Checksum: 323
Satellite: LIBERT Catalog number: 31129 Epoch time: 08066.77099536 Element set: 800 Inclination: 098.0512 deg RA of node: 134.5243 deg Eccentricity: 0.0101680 Arg of perigee: 291.8557 deg Mean anomaly: 067.1844 deg Mean motion: 14.52008871 rev/day Decay rate: 3.36e-06 rev/day^2 Epoch rev: 4705 Checksum: 293
/EX SB KEPS @ AMSAT $ORB08066.W Orbital Elements 08066.WEATHER
HR AMSAT ORBITAL ELEMENTS FOR WEATHER SATELLITES FROM WA5QGD FORT WORTH,TX March 6, 2008 Send Subscribe/unsubscribe to KEPS at http://www.amsat.org/mailman/listinfo/keps BID: ORB08066.W TO ALL RADIO AMATEURS BT
Satellite: NOAA-10 Catalog number: 16969 Epoch time: 08066.45918813 Element set: 33 Inclination: 098.7316 deg RA of node: 088.5939 deg Eccentricity: 0.0013007 Arg of perigee: 118.7651 deg Mean anomaly: 241.4846 deg Mean motion: 14.27352146 rev/day Decay rate: -1.2e-07 rev/day^2 Epoch rev: 11678 Checksum: 315
Satellite: NOAA-11 Catalog number: 19531 Epoch time: 08066.27377380 Element set: 69 Inclination: 098.7972 deg RA of node: 157.0399 deg Eccentricity: 0.0011631 Arg of perigee: 006.0268 deg Mean anomaly: 354.1028 deg Mean motion: 14.14866953 rev/day Decay rate: -1.40e-06 rev/day^2 Epoch rev: 335 Checksum: 300
Satellite: NOAA-12 Catalog number: 21263 Epoch time: 08066.44507506 Element set: 576 Inclination: 098.7664 deg RA of node: 068.4094 deg Eccentricity: 0.0013345 Arg of perigee: 065.9466 deg Mean anomaly: 294.3117 deg Mean motion: 14.25520180 rev/day Decay rate: 1.18e-06 rev/day^2 Epoch rev: 87375 Checksum: 314
Satellite: MET-3/5 Catalog number: 21655 Epoch time: 08066.25466547 Element set: 400 Inclination: 082.5587 deg RA of node: 177.0887 deg Eccentricity: 0.0012213 Arg of perigee: 271.6491 deg Mean anomaly: 088.3236 deg Mean motion: 13.17014530 rev/day Decay rate: 5.1e-07 rev/day^2 Epoch rev: 79603 Checksum: 299
